{"data":{"norad_id":69997,"intl_designator":"2026-159Y","name":"STARLINK-38091","alt_names":[],"object_type":"PAYLOAD","status":"ACTIVE","operator":null,"country":"US","launch_date":"2026-07-11","launch_site_code":"AFWTR","launch_vehicle":null,"mission":null,"orbit_class":"UNKNOWN","rcs_meters":null,"size_class":null,"mass_kg":null,"dimensions":null,"purposes":["comms"],"wikipedia_slug":null,"has_3d_model":false,"image_url":null,"decayed_at":null,"tle_current":{"epoch":"2026-09-20T04:00:03.000096Z","epoch_age_seconds":46581,"freshness":"FRESH","line1":"1 69997U 26159Y   26263.16670139 -.02725083  00000+0 -71075-1 0  9994","line2":"2 69997  97.2855 105.0906 0001331 101.5930 205.8306 15.42873550  5993","mean_motion":15.4287355,"eccentricity":0.0001331,"inclination_deg":97.2855,"raan_deg":105.0906,"arg_perigee_deg":101.593,"mean_anomaly_deg":205.8306,"bstar":-0.071075,"rev_number":599,"period_min":93.332340813024,"perigee_km":436.72622067485,"apogee_km":438.54057875525,"semimajor_km":6815.770399715,"source":"CELESTRAK","updated_at":"2026-09-20T09:00:44.332516Z"}}}